Regional Weather Roundup
Issued by NWS

Home | Current Version | Previous Version | Text Only | Print | Product List | Glossary Off
Versions: 1 2 3 4 5 6 7 8 9 10 11 12 13 14 15 16 17 18 19 20 21 22 23 24 25 26 27 28 29 30 31 32 33 34 35 36 37 38 39 40 41 42 43 44 45 46 47 48 49 50

450
ASUS43 KBIS 100002
RWRND

NORTH DAKOTA REGIONAL WEATHER ROUNDUP
NATIONAL WEATHER SERVICE BISMARCK ND
600 PM CST TUE FEB 09 2016

NOTE: "FAIR" INDICATES FEW OR NO CLOUDS BELOW 12,000 FEET WITH NO
SIGNIFICANT WEATHER AND/OR OBSTRUCTIONS TO VISIBILITY.


NDZ001>003-009>011-017-100100-
NORTHWEST NORTH DAKOTA

CITY           SKY/WX    TMP DP  RH WIND       PRES   REMARKS
WILLISTON      CLOUDY    36  23  59 SE3       30.09F
6HR MIN TEMP:  33; 6HR MAX TEMP:  39;

MINOT          CLOUDY    29  17  61 E13       30.13F WCI  19
MINOT AFB      CLOUDY    26  19  75 SE14      30.12F WCI  15
$$

NDZ018>021-031>035-040>046-100100-
SOUTHWEST NORTH DAKOTA

CITY           SKY/WX    TMP DP  RH WIND       PRES   REMARKS
BISMARCK       CLOUDY    39  19  44 N8        30.14S
6HR MIN TEMP:  34; 6HR MAX TEMP:  41;

DICKINSON      CLOUDY    36  22  56 E6        30.06F
GARRISON         N/A     34  20  56 N3        30.11F
6HR MIN TEMP:  30; 6HR MAX TEMP:  37;

HETTINGER ARPT CLOUDY    41  21  44 N7        30.10F
$$

NDZ004>008-012>016-024-026-027-054-100100-
NORTHEAST NORTH DAKOTA

CITY           SKY/WX    TMP DP  RH WIND       PRES   REMARKS
GRAND FORKS    CLOUDY     9   1  70 N14       30.28F WCI  -7
GRND FRKS AFB  CLOUDY     9   1  72 N12       30.27F WCI  -6
DEVILS LAKE    CLOUDY    11   6  81 E8        30.21F WCI  -1
$$

NDZ022-023-025-028>030-036>039-047>053-100100-
SOUTHEAST NORTH DAKOTA

CITY           SKY/WX    TMP DP  RH WIND       PRES   REMARKS
FARGO          CLOUDY    13   5  70 N12       30.27R WCI  -1
6HR MIN TEMP:  13; 6HR MAX TEMP:  15; 6HR PCP: TRACE;

JAMESTOWN      CLOUDY    19  10  68 E10       30.18S WCI   7
$$





USA.gov is the U.S. government's official web portal to all federal, state and local government web resources and services.